Location: La Fredeussais
(48.1780°N, 1.3980°W)
Time: 03:35:34
(UTC+00:00)

SL-8 Rocket - Pass Details

Date: 09 May 2021
Orbit: 958 x 990 km, 82.9° (Epoch: 13 June)

Event Time Altitude Azimuth Distance (km) Brightness Sun altitude
Rises 23:25:49 0° 348° (NNW) 3,716 8.5 -23.7°
Reaches altitude 10° 23:28:22 10° 346° (NNW) 2,763 7.5 -23.8°
Maximum altitude 23:34:37 64° 267° (W) 1,095 4.2 -23.9°
Enters shadow 23:36:26 45° 208° (SSW) 1,318 4.3 -23.9°
